Simultaneous Nadir Overpasses (SNOs) Predictions

Prediction of SNOs between AQUA and NOAA-19 Satellite Orbit:

Table of predicted SNOs for the next 14.0 days since TLE Epoch: 6/1/2013
Index Date (AQUA) Time (AQUA) Lat,Lon (AQUA) SZA (AQUA ) Date (NOAA-19) Time (NOAA-19) Lat,Lon (NOAA-19) SZA (NOAA-19 ) Distance(km) Time Diff (sec)
1 06/01/2013 09:25:43 -48.98,-126.92 150.73 06/01/2013 09:24:53 -48.96,-126.98 150.83 4.63 50
2 06/01/2013 10:14:24 46.11, 41.82 27.15 06/01/2013 10:15:12 46.03, 41.46 27.02 29.39 48
3 06/03/2013 14:09:56 -48.77, 162.09 151.18 06/03/2013 14:09:10 -48.78, 162.03 151.25 4.57 46
4 06/03/2013 14:58:40 46.09, -29.24 26.84 06/03/2013 14:59:32 46.04, -29.62 26.74 29.22 52
5 06/05/2013 18:54:09 -48.59, 91.09 151.59 06/05/2013 18:53:26 -48.56, 91.06 151.68 4.19 43
6 06/05/2013 19:42:56 46.08,-100.31 26.57 06/05/2013 19:43:51 46.00,-100.67 26.46 28.95 55
7 06/07/2013 23:38:21 -48.35, 20.12 152.00 06/07/2013 23:37:42 -48.33, 20.09 152.08 3.50 39
8 06/08/2013 00:27:12 46.09,-171.38 26.34 06/08/2013 00:28:11 46.03,-171.75 26.25 28.90 59
9 06/10/2013 04:22:32 -48.08, -50.84 152.41 06/10/2013 04:21:57 -48.05, -50.86 152.49 3.62 35
10 06/10/2013 05:11:28 46.11, 117.54 26.16 06/10/2013 05:12:31 46.06, 117.17 26.08 28.96 63
11 06/12/2013 09:06:44 -47.89,-121.83 152.73 06/12/2013 09:06:14 -47.89,-121.87 152.78 2.56 30
12 06/12/2013 09:55:43 46.10, 46.48 25.97 06/12/2013 09:56:50 46.05, 46.11 25.89 28.94 67
13 06/14/2013 13:50:54 -47.59, 167.22 153.10 06/14/2013 13:50:28 -47.57, 167.20 153.16 2.91 26




NCC Satellite Simultaneous Nadir Overpasses (SNOs) Prediction Service
